Location: Anjeux
(47.8815°N, 6.2076°E)
Time: 18:39:10
(UTC+00:00)

ATLAS 5 CENTAUR R/B - Pass Details

Date: 05 March 2021
Orbit: 516 x 1142 km, 63.3° (Epoch: 15 April)

Event Time Altitude Azimuth Distance (km) Brightness Sun altitude
Rises 04:32:01 0° 182° (S) 2,633 4.7 -16.9°
Reaches altitude 10° 04:34:27 10° 167° (SSE) 1,780 4.0 -16.5°
Maximum altitude 04:37:33 22° 115° (ESE) 1,238 3.8 -16.0°
Drops below altitude 10° 04:40:54 10° 64° (ENE) 1,947 5.3 -15.4°
Sets 04:43:41 0° 50° (NE) 2,954 6.1 -15.0°
